Skip Page Navigation
NASA JPL Caltech
NASA Logo - Jet Propulsion Laboratory + View the NASA Portal
+ Near-Earth Object (NEO) Program
Search JPL
JPL Home Earth Solar System Stars & Galaxies Technology
JPL Solar System Dynamics
BODIES ORBITS EPHEMERIDES TOOLS PHYSICAL DATA DISCOVERY FAQ SITE MAP
JPL Small-Body Database Browser
Search: [ help ]  
5898 (1985 KE)
Classification: Main-belt Asteroid          SPK-ID: 2005898
Ephemeris | Orbit Diagram | Orbital Elements | Physical Parameters | Discovery Circumstances ]

[ show orbit diagram ]
Orbital Elements at Epoch 2456800.5 (2014-May-23.0) TDB
Reference: JPL 12 (heliocentric ecliptic J2000)
 Element Value Uncertainty (1-sigma)   Units 
e .1357458378581438 4.8336e-08  
a 2.921289425730489 2.5453e-08 AU
q 2.524736545008568 1.3964e-07 AU
i 3.060365630735176 5.4631e-06 deg
node 228.5634532768548 9.6666e-05 deg
peri 164.5981387455124 9.907e-05 deg
M 133.9631212137234 2.0985e-05 deg
tp 2456121.854359264946
(2012-Jul-13.35435926)
0.00010509 JED
period 1823.729011769187
4.99
2.3835e-05
6.526e-08
d
yr
n .1973977480627818 2.5799e-09 deg/d
Q 3.31784230645241 2.8908e-08 AU
  Orbit Determination Parameters
   # obs. used (total)      1168  
   data-arc span      13341 days (36.53 yr)  
   first obs. used      1977-12-07  
   last obs. used      2014-06-17  
   planetary ephem.      DE431  
   SB-pert. ephem.      SB431-BIG16  
   condition code      0  
   fit RMS      .51851  
   data source      ORB  
   producer      Otto Matic  
   solution date      2014-Jul-14 12:13:10  

Additional Information
 Earth MOID = 1.52979 AU 
 T_jup = 3.264 
[ show covariance matrix ]

Ephemeris | Orbit Diagram | Orbital Elements | Physical Parameters | Discovery Circumstances ]

Physical Parameter Table
Parameter Symbol Value Units Sigma Reference Notes
absolute magnitude H 12.9 mag n/a MPO259381  

5898 (1985 KE)          Discovered 1985-May-23 by Gilmore and Kilmartin at Lake Tekapo
Reference: DISCOVERY.DBLast Updated: 2003-08-29

Alternate Designations
 1985 KE = 1977 XT = 1992 WV5 
Ephemeris | Orbit Diagram | Orbital Elements | Physical Parameters | Discovery Circumstances ]
ABOUT SSD CREDITS/AWARDS PRIVACY/COPYRIGHT GLOSSARY LINKS
FirstGov 2014-Aug-02 04:29 UT
(server date/time)  
NASA Home Page
Site Manager:   Donald K. Yeomans
Webmaster  Alan B. Chamberlin